map of ECN home
ECN - Airport
Location
City:  Lefkosa, Cyprus
Near (Alt.):Nicosia
Name:Ercan International Airport
ICAO:LCEN
IATA:ECN

Details
Type:Airport (Aerodrome, Airfield)
Use:International (customs port of entry)
Latitude:3508'56"N (35.148889)
Longitude:3329'59"E (33.499722)
Elevation:402 ft (123 m)
Variation:4.93E (WMM2015 magnetic declination)
0.09 annual change
Runways:1
Longest:9039 × 148 ft (2755 × 45 m)

Time
Time Zone:UTC+2 (DST+3)
Local Time:

Weather
METAR:LCEN 091050Z 29009KT 9999 FEW030 17/04 Q1025 NOSIG RMK RWY11 30009KT

Related Locations
Nearby:
Farthest:RVV: 11651 mi / 18750 km
Raivavae, Tubuai Islands, Austral Islands, PF

Find:

   beyond  
but within

Other Information
Maps:
NOTAMs:
Links:
Sources:

  
flag of Cyprus   

Sectional Chart

Flight Planning
at skyvector.com

Satellite Image

Google Maps Satellite view

 

Copyright © 2004-2016 Karl L. Swartz. All rights reserved.
The Great Circle Mapper name and logo are trademarks of the Great Circle Mapper.
All other trademarks mentioned herein belong to their respective owners.
Please see credits for attibutions and further copyright information.

  Follow gcmap on Facebook Follow gcmap on Twitter Follow gcmap on Google+ GCmap on LinkedIn

hCard Microformat

Geo Microformat